• In Spain
  • List of Countries
  • For 7 days
  • Water Temperature
  • Satellite Maps
  • Weather Map
  • Weather Widgets
  • user-avatar
    Login

    Hourly Weather Skrobovo

    Today, 28 May, Monday

    Time Temperature Precipitation Wind Pressure Humidity
    00:00 +9°C° 0 mm 2 mps 755 mmHg 50%
    01:00 +8°C° 0 mm 2 mps 755 mmHg 51%
    02:00 +7°C° 0 mm 2 mps 756 mmHg 52%
    03:00 +8°C° 0 mm 2 mps 757 mmHg 53%
    04:00 +8°C° 0 mm 2 mps 757 mmHg 53%
    05:00 +8°C° 0 mm 2 mps 758 mmHg 54%
    06:00 +10°C° 0 mm 2 mps 758 mmHg 48%
    07:00 +13°C° 0 mm 2 mps 758 mmHg 42%
    08:00 +15°C° 0 mm 2 mps 759 mmHg 36%
    09:00 +16°C° 0 mm 2 mps 759 mmHg 33%
    10:00 +17°C° 0 mm 2 mps 759 mmHg 30%
    11:00 +18°C° 0 mm 2 mps 759 mmHg 27%
    12:00 +19°C° 0 mm 2 mps 758 mmHg 27%
    13:00 +20°C° 0 mm 2 mps 758 mmHg 26%
    14:00 +21°C° 0 mm 2 mps 758 mmHg 26%
    15:00 +21°C° 0 mm 1 mps 758 mmHg 28%
    16:00 +21°C° 0 mm 1 mps 758 mmHg 30%
    17:00 +21°C° 0 mm 1 mps 757 mmHg 32%
    18:00 +19°C° 0 mm 1 mps 757 mmHg 39%
    19:00 +15°C° 0 mm 1 mps 757 mmHg 46%
    20:00 +12°C° 0 mm 0 mps 757 mmHg 53%
    21:00 +13°C° 0 mm 1 mps 757 mmHg 54%
    22:00 +12°C° 0 mm 1 mps 757 mmHg 55%
    23:00 +11°C° 0 mm 1 mps 758 mmHg 56%

    Tomorrow, 29 May, Tuesday

    Time Temperature Precipitation Wind Pressure Humidity
    00:00 +11°C° 0 mm 1 mps 758 mmHg 58%
    01:00 +9°C° 0 mm 2 mps 758 mmHg 60%
    02:00 +9°C° 0 mm 2 mps 758 mmHg 62%
    03:00 +9°C° 0 mm 2 mps 758 mmHg 62%
    04:00 +10°C° 0 mm 2 mps 757 mmHg 62%
    05:00 +10°C° 0 mm 2 mps 757 mmHg 63%
    06:00 +14°C° 0 mm 2 mps 757 mmHg 57%
    07:00 +16°C° 0 mm 2 mps 757 mmHg 51%
    08:00 +18°C° 0 mm 3 mps 756 mmHg 44%
    09:00 +20°C° 0 mm 3 mps 756 mmHg 40%
    10:00 +21°C° 0 mm 3 mps 755 mmHg 37%
    11:00 +22°C° 0 mm 3 mps 755 mmHg 33%
    12:00 +24°C° 0 mm 3 mps 754 mmHg 32%
    13:00 +25°C° 0 mm 3 mps 753 mmHg 32%
    14:00 +25°C° 0 mm 4 mps 752 mmHg 32%
    15:00 +25°C° 0 mm 4 mps 751 mmHg 36%
    16:00 +25°C° 0 mm 4 mps 751 mmHg 40%
    17:00 +25°C° 0 mm 3 mps 750 mmHg 45%
    18:00 +22°C° 0 mm 3 mps 749 mmHg 54%
    19:00 +20°C° 0 mm 3 mps 749 mmHg 64%
    20:00 +18°C° 0 mm 2 mps 748 mmHg 74%
    21:00 +17°C° 0 mm 2 mps 748 mmHg 76%
    22:00 +17°C° 0 mm 2 mps 748 mmHg 78%
    23:00 +16°C° 0 mm 3 mps 748 mmHg 80%

    Day after tomorrow, 30 May, Wednesday

    Time Temperature Precipitation Wind Pressure Humidity
    00:00 +14°C° 0 mm 3 mps 747 mmHg 81%
    01:00 +14°C° 0 mm 3 mps 747 mmHg 82%
    02:00 +13°C° 0 mm 3 mps 747 mmHg 83%
    03:00 +13°C° 0 mm 3 mps 746 mmHg 79%
    04:00 +14°C° 0 mm 4 mps 745 mmHg 74%
    05:00 +14°C° 0 mm 4 mps 745 mmHg 69%
    06:00 +17°C° 0 mm 4 mps 744 mmHg 62%
    07:00 +19°C° 0 mm 5 mps 744 mmHg 54%
    08:00 +20°C° 0 mm 5 mps 744 mmHg 47%
    09:00 +22°C° 0 mm 6 mps 743 mmHg 44%
    10:00 +23°C° 0 mm 6 mps 743 mmHg 41%
    11:00 +24°C° 0 mm 7 mps 742 mmHg 38%
    12:00 +26°C° 0 mm 7 mps 742 mmHg 38%
    13:00 +26°C° 0 mm 7 mps 742 mmHg 37%
    14:00 +26°C° 0 mm 7 mps 741 mmHg 36%
    15:00 +24°C° 0 mm 6 mps 741 mmHg 38%
    16:00 +23°C° 0 mm 5 mps 741 mmHg 40%
    17:00 +22°C° 0 mm 4 mps 741 mmHg 42%
    18:00 +19°C° 0 mm 4 mps 741 mmHg 45%
    19:00 +17°C° 0 mm 4 mps 742 mmHg 48%
    20:00 +14°C° 0 mm 3 mps 742 mmHg 51%
    21:00 +12°C° 0 mm 3 mps 742 mmHg 54%
    22:00 +11°C° 0 mm 3 mps 743 mmHg 58%
    23:00 +10°C° 0 mm 2 mps 743 mmHg 62%

    31 May, Thursday

    Time Temperature Precipitation Wind Pressure Humidity
    00:00 +9°C° 0 mm 2 mps 744 mmHg 66%
    01:00 +9°C° 0 mm 2 mps 744 mmHg 71%
    02:00 +8°C° 0 mm 2 mps 745 mmHg 75%
    03:00 +8°C° 0 mm 3 mps 745 mmHg 71%
    04:00 +8°C° 0 mm 3 mps 746 mmHg 68%
    05:00 +7°C° 0 mm 4 mps 746 mmHg 64%
    06:00 +8°C° 0 mm 4 mps 747 mmHg 57%
    07:00 +8°C° 0 mm 4 mps 747 mmHg 50%
    08:00 +10°C° 0 mm 4 mps 747 mmHg 43%
    09:00 +11°C° 0 mm 4 mps 748 mmHg 39%
    10:00 +12°C° 0 mm 4 mps 748 mmHg 35%
    11:00 +13°C° 0 mm 4 mps 748 mmHg 31%
    12:00 +13°C° 0 mm 4 mps 748 mmHg 30%
    13:00 +14°C° 0 mm 4 mps 748 mmHg 29%
    14:00 +14°C° 0 mm 4 mps 748 mmHg 28%
    15:00 +14°C° 0 mm 4 mps 748 mmHg 29%
    16:00 +14°C° 0 mm 4 mps 749 mmHg 31%
    17:00 +13°C° 0 mm 4 mps 749 mmHg 32%
    18:00 +12°C° 0 mm 3 mps 749 mmHg 39%
    19:00 +10°C° 0 mm 3 mps 750 mmHg 45%
    20:00 +8°C° 0 mm 2 mps 750 mmHg 52%
    21:00 +7°C° 0 mm 2 mps 750 mmHg 54%
    22:00 +5°C° 0 mm 3 mps 751 mmHg 56%
    23:00 +4°C° 0 mm 3 mps 751 mmHg 59%

    1 June, Friday

    Time Temperature Precipitation Wind Pressure Humidity
    00:00 +3°C° 0 mm 3 mps 752 mmHg 61%
    01:00 +3°C° 0 mm 2 mps 752 mmHg 64%
    02:00 +2°C° 0 mm 2 mps 752 mmHg 67%
    03:00 +3°C° 0 mm 2 mps 753 mmHg 65%
    04:00 +3°C° 0 mm 2 mps 753 mmHg 63%
    05:00 +3°C° 0 mm 3 mps 753 mmHg 61%
    06:00 +4°C° 0 mm 3 mps 753 mmHg 55%
    07:00 +7°C° 0 mm 3 mps 754 mmHg 49%
    08:00 +8°C° 0 mm 3 mps 754 mmHg 43%
    09:00 +10°C° 0 mm 3 mps 754 mmHg 41%
    10:00 +11°C° 0 mm 3 mps 754 mmHg 38%
    11:00 +12°C° 0 mm 3 mps 754 mmHg 35%
    12:00 +13°C° 0 mm 3 mps 754 mmHg 34%
    13:00 +13°C° 0 mm 3 mps 753 mmHg 32%
    14:00 +14°C° 0 mm 3 mps 753 mmHg 31%
    15:00 +15°C° 0 mm 2 mps 753 mmHg 31%
    16:00 +15°C° 0 mm 2 mps 753 mmHg 32%
    17:00 +15°C° 0 mm 2 mps 753 mmHg 33%
    18:00 +13°C° 0 mm 2 mps 753 mmHg 41%
    19:00 +11°C° 0 mm 1 mps 753 mmHg 49%
    20:00 +8°C° 0 mm 0 mps 753 mmHg 57%
    21:00 +7°C° 0 mm 0 mps 753 mmHg 58%
    22:00 +7°C° 0 mm 1 mps 754 mmHg 60%
    23:00 +6°C° 0 mm 1 mps 754 mmHg 61%

    2 June, Saturday

    Time Temperature Precipitation Wind Pressure Humidity
    00:00 +6°C° 0 mm 1 mps 754 mmHg 63%
    01:00 +4°C° 0 mm 0 mps 754 mmHg 65%
    02:00 +4°C° 0 mm 0 mps 754 mmHg 67%
    03:00 +6°C° 0 mm 1 mps 754 mmHg 65%
    04:00 +7°C° 0 mm 1 mps 754 mmHg 62%
    05:00 +8°C° 0 mm 1 mps 755 mmHg 60%
    06:00 +10°C° 0 mm 1 mps 755 mmHg 53%
    07:00 +13°C° 0 mm 1 mps 755 mmHg 47%
    08:00 +15°C° 0 mm 1 mps 755 mmHg 40%
    09:00 +16°C° 0 mm 1 mps 754 mmHg 37%
    10:00 +19°C° 0 mm 1 mps 754 mmHg 33%
    11:00 +19°C° 0 mm 2 mps 754 mmHg 30%
    12:00 +20°C° 0 mm 2 mps 753 mmHg 29%
    13:00 +20°C° 0 mm 2 mps 752 mmHg 29%
    14:00 +21°C° 0 mm 2 mps 752 mmHg 29%
    15:00 +20°C° 0 mm 2 mps 751 mmHg 31%
    16:00 +20°C° 0 mm 2 mps 751 mmHg 33%
    17:00 +20°C° 0 mm 3 mps 751 mmHg 35%
    18:00 +18°C° 0 mm 2 mps 750 mmHg 44%
    19:00 +16°C° 0 mm 2 mps 750 mmHg 53%
    20:00 +14°C° 0 mm 2 mps 750 mmHg 61%
    21:00 +13°C° 0 mm 2 mps 750 mmHg 63%
    22:00 +12°C° 0 mm 2 mps 750 mmHg 65%
    23:00 +10°C° 0 mm 2 mps 750 mmHg 66%
    Show more